DH0GMA Weather Reports


Display with metric or nautical units.
time (UTC)temp
F
wind
direction
speed
MPH
gust
MPH
rain 1hr
in
rain 24hr
in
rain mn
in
humidity
%
barometer
mb
20260904140747 86 136 2.0 9.0 0.00 0.00 0.00 45 1014.5
20260904135746 86 219 3.0 9.0 0.00 0.00 0.00 45 1014.6
20260904134745 86 216 2.0 11.0 0.00 0.00 0.00 46 1014.6
20260904133745 86 183 6.0 10.0 0.00 0.00 0.00 44 1014.9
20260904132745 85 152 6.0 10.0 0.00 0.00 0.00 45 1014.9
20260904131745 85 140 5.0 9.0 0.00 0.00 0.00 45 1015.0
20260904130746 85 145 4.0 10.0 0.00 0.00 0.00 46 1015.1
20260904125746 84 268 4.0 10.0 0.00 0.00 0.00 47 1015.2
20260904124746 84 246 4.0 9.0 0.00 0.00 0.00 47 1015.2
20260904123746 84 162 5.0 10.0 0.00 0.00 0.00 48 1015.5
20260904122745 84 154 4.0 9.0 0.00 0.00 0.00 47 1015.7
20260904121745 83 254 5.0 12.0 0.00 0.00 0.00 47 1015.7
20260904120745 83 135 4.0 8.0 0.00 0.00 0.00 49 1016.1
20260904115745 82 222 4.0 10.0 0.00 0.00 0.00 49 1016.1
20260904114745 82 131 5.0 10.0 0.00 0.00 0.00 48 1016.3
20260904113747 82 242 2.0 9.0 0.00 0.00 0.00 49 1016.4
20260904112746 82 274 4.0 8.0 0.00 0.00 0.00 50 1016.4
20260904111746 81 270 4.0 10.0 0.00 0.00 0.00 49 1016.6
20260904110746 80 181 6.0 11.0 0.00 0.00 0.00 50 1016.7
20260904105746 81 218 6.0 11.0 0.00 0.00 0.00 49 1016.9
20260904104746 80 113 2.0 9.0 0.00 0.00 0.00 53 1017.0
20260904103746 80 200 3.0 10.0 0.00 0.00 0.00 54 1017.1
20260904102745 80 252 3.0 9.0 0.00 0.00 0.00 54 1017.3
20260904101745 79 197 4.0 9.0 0.00 0.00 0.00 55 1017.4
20260904100745 78 227 4.0 10.0 0.00 0.00 0.00 55 1017.7
20260904095745 78 243 4.0 9.0 0.00 0.00 0.00 56 1017.9
20260904094745 78 173 4.0 9.0 0.00 0.00 0.00 56 1017.8
20260904093745 78 186 4.0 8.0 0.00 0.00 0.00 56 1018.0
20260904092747 78 263 4.0 11.0 0.00 0.00 0.00 57 1018.2
20260904091746 77 156 2.0 6.0 0.00 0.00 0.00 57 1018.3
20260904090746 76 153 4.0 8.0 0.00 0.00 0.00 59 1018.4
20260904085746 75 213 4.0 7.0 0.00 0.00 0.00 60 1018.6
20260904084746 75 219 3.0 8.0 0.00 0.00 0.00 60 1018.6
20260904083746 75 216 3.0 5.0 0.00 0.00 0.00 60 1018.7
20260904082746 74 250 2.0 7.0 0.00 0.00 0.00 63 1018.8
20260904081745 73 237 2.0 6.0 0.00 0.00 0.00 64 1018.7
20260904080746 72 146 3.0 6.0 0.00 0.00 0.00 65 1018.9
20260904075746 71 247 2.0 5.0 0.00 0.00 0.00 67 1018.9
20260904074746 71 168 3.0 4.0 0.00 0.00 0.00 68 1019.1
20260904073746 69 175 1.0 5.0 0.00 0.00 0.00 71 1019.3
20260904072746 69 166 1.0 5.0 0.00 0.00 0.00 71 1019.3
20260904071746 68 160 2.0 4.0 0.00 0.00 0.00 73 1019.3
20260904070746 67 147 1.0 6.0 0.00 0.00 0.00 75 1019.4
20260904065746 66 183 1.0 4.0 0.00 0.00 0.00 77 1019.4
20260904064745 65 174 3.0 4.0 0.00 0.00 0.00 78 1019.6
20260904063745 64 247 0.0 2.0 0.00 0.00 0.00 80 1019.7
20260904062746 63 174 2.0 3.0 0.00 0.00 0.00 81 1019.7
20260904061746 62 157 0.0 3.0 0.00 0.00 0.00 81 1019.6
20260904060746 62 151 0.0 3.0 0.00 0.00 0.00 83 1019.6
20260904055746 61 168 2.0 4.0 0.00 0.00 0.00 84 1019.5
20260904054746 60 194 0.0 2.0 0.00 0.00 0.00 85 1019.5
20260904053745 60 194 0.0 1.0 0.00 0.00 0.00 85 1019.5
20260904052745 60 194 0.0 0.0 0.00 0.00 0.00 85 1019.6
20260904051745 60 194 0.0 0.0 0.00 0.00 0.00 85 1019.7
20260904050745 60 193 0.0 0.0 0.00 0.00 0.00 84 1019.8
20260904045745 60 193 0.0 2.0 0.00 0.00 0.00 84 1019.8
20260904044745 60 194 0.0 2.0 0.00 0.00 0.00 84 1019.9
20260904043745 61 194 0.0 2.0 0.00 0.00 0.00 83 1019.9
20260904042744 61 192 0.0 0.0 0.00 0.00 0.00 83 1019.9
20260904041744 61 185 0.0 2.0 0.00 0.00 0.00 82 1020.0
20260904040746 62 186 0.0 0.0 0.00 0.00 0.00 82 1020.1
20260904035746 62 186 0.0 0.0 0.00 0.00 0.00 82 1020.4
20260904034746 62 186 0.0 2.0 0.00 0.00 0.00 81 1020.5
20260904033746 62 186 1.0 3.0 0.00 0.00 0.00 82 1020.5
20260904032746 62 188 1.0 3.0 0.00 0.00 0.00 81 1020.6
20260904031746 62 189 1.0 4.0 0.00 0.00 0.00 81 1020.6
20260904030745 62 180 2.0 3.0 0.00 0.00 0.00 81 1020.6
20260904025745 62 125 1.0 5.0 0.00 0.00 0.00 81 1020.6
20260904024745 62 218 2.0 3.0 0.00 0.00 0.00 82 1020.6
20260904023745 62 211 2.0 4.0 0.00 0.00 0.00 82 1020.7
20260904022744 62 214 1.0 3.0 0.00 0.00 0.00 81 1020.7
20260904021744 62 191 2.0 4.0 0.00 0.00 0.00 81 1020.8
20260904020746 63 184 1.0 3.0 0.00 0.00 0.00 81 1020.8
20260904015746 63 172 2.0 3.0 0.00 0.00 0.00 80 1020.8
20260904014746 63 187 1.0 3.0 0.00 0.00 0.00 80 1020.7
20260904013746 63 182 1.0 3.0 0.00 0.00 0.00 80 1020.9
20260904012745 63 169 2.0 3.0 0.00 0.00 0.00 80 1020.9
20260904011745 63 181 1.0 2.0 0.00 0.00 0.00 79 1021.2
20260904010745 63 178 1.0 2.0 0.00 0.00 0.00 78 1021.3
20260904005745 63 178 0.0 1.0 0.00 0.00 0.00 78 1021.3
20260904004745 63 178 1.0 3.0 0.00 0.00 0.00 77 1021.3
20260904003746 63 178 0.0 3.0 0.00 0.00 0.00 76 1021.4
20260904002746 63 190 1.0 3.0 0.00 0.00 0.00 75 1021.3
20260904001745 63 189 0.0 0.0 0.00 0.00 0.00 75 1021.4
20260904000745 63 189 0.0 0.0 0.00 0.00 0.00 74 1021.4
20260903235745 63 189 0.0 0.0 0.00 0.00 0.00 74 1021.5
20260903234745 64 189 0.0 2.0 0.00 0.00 0.00 73 1021.5
20260903233745 64 189 0.0 0.0 0.00 0.00 0.00 73 1021.7
20260903232745 64 189 0.0 0.0 0.00 0.00 0.00 72 1021.6
20260903231745 64 189 0.0 2.0 0.00 0.00 0.00 72 1021.6
20260903230744 64 189 0.0 1.0 0.00 0.00 0.00 72 1021.5
20260903225744 65 189 1.0 2.0 0.00 0.00 0.00 71 1021.6
20260903224746 65 199 0.0 2.0 0.00 0.00 0.00 71 1021.6
20260903223746 65 199 0.0 0.0 0.00 0.00 0.00 70 1021.5
20260903222746 65 199 0.0 2.0 0.00 0.00 0.00 70 1021.6
20260903221745 66 199 0.0 1.0 0.00 0.00 0.00 69 1021.6
20260903220745 67 200 1.0 3.0 0.00 0.00 0.00 67 1021.6
20260903215745 67 201 0.0 2.0 0.00 0.00 0.00 67 1021.5
20260903214745 67 196 1.0 3.0 0.00 0.00 0.00 67 1021.8
20260903213746 67 195 1.0 3.0 0.00 0.00 0.00 66 1021.7
20260903212746 67 200 0.0 3.0 0.00 0.00 0.00 66 1021.7
20260903211745 67 201 1.0 2.0 0.00 0.00 0.00 66 1021.6
20260903210745 67 218 1.0 3.0 0.00 0.00 0.00 66 1021.5
20260903205745 67 237 1.0 4.0 0.00 0.00 0.00 66 1021.6
20260903204745 67 285 1.0 2.0 0.00 0.00 0.00 67 1021.3
20260903203745 67 285 1.0 2.0 0.00 0.00 0.00 68 1021.4
20260903202745 67 285 0.0 1.0 0.00 0.00 0.00 68 1021.7
20260903201744 68 285 0.0 0.0 0.00 0.00 0.00 67 1021.8
20260903200744 68 285 0.0 0.0 0.00 0.00 0.00 66 1021.8
20260903195744 68 285 0.0 1.0 0.00 0.00 0.00 65 1021.6
20260903194746 68 285 0.0 2.0 0.00 0.00 0.00 64 1021.4
20260903193746 69 285 0.0 1.0 0.00 0.00 0.00 63 1021.3
20260903192746 69 285 0.0 1.0 0.00 0.00 0.00 62 1021.2
20260903191745 70 285 0.0 2.0 0.00 0.00 0.00 60 1021.1
20260903190745 70 285 0.0 2.0 0.00 0.00 0.00 59 1020.9
20260903185745 70 285 0.0 2.0 0.00 0.00 0.00 59 1020.9
20260903184745 70 287 0.0 1.0 0.00 0.00 0.00 60 1020.9
20260903183745 70 287 0.0 1.0 0.00 0.00 0.00 59 1020.7
20260903182745 71 287 0.0 2.0 0.00 0.00 0.00 58 1020.7
20260903181745 71 287 0.0 0.0 0.00 0.00 0.00 57 1020.8
20260903180745 71 287 0.0 0.0 0.00 0.00 0.00 57 1020.6
20260903175745 72 287 0.0 2.0 0.00 0.00 0.00 56 1020.5
20260903174745 72 287 0.0 2.0 0.00 0.00 0.00 55 1020.4
20260903173745 73 287 0.0 0.0 0.00 0.00 0.00 54 1020.3
20260903172745 74 287 0.0 1.0 0.00 0.00 0.00 53 1020.4
20260903171744 74 286 0.0 2.0 0.00 0.00 0.00 53 1020.4
20260903170744 74 295 0.0 2.0 0.00 0.00 0.00 52 1020.3
20260903165744 75 259 0.0 2.0 0.00 0.00 0.00 51 1020.3
20260903164746 75 293 2.0 3.0 0.00 0.00 0.00 50 1020.3
20260903163746 75 295 1.0 2.0 0.00 0.00 0.00 51 1020.2
20260903162744 76 160 0.0 3.0 0.00 0.00 0.00 56 1020.1
20260903161744 76 151 1.0 3.0 0.00 0.00 0.00 56 1020.0
20260903160744 76 193 2.0 4.0 0.00 0.00 0.00 54 1020.1
20260903155744 77 150 2.0 7.0 0.00 0.00 0.00 53 1020.2
20260903154744 77 146 2.0 7.0 0.00 0.00 0.00 52 1020.3
20260903153744 77 120 2.0 6.0 0.00 0.00 0.00 55 1020.3
20260903152746 77 168 3.0 7.0 0.00 0.00 0.00 54 1020.4
20260903151746 78 160 5.0 9.0 0.00 0.00 0.00 52 1020.3
20260903150746 78 264 3.0 7.0 0.00 0.00 0.00 53 1020.5
20260903145745 78 260 2.0 8.0 0.00 0.00 0.00 54 1020.2
20260903144745 78 168 2.0 9.0 0.00 0.00 0.00 53 1020.1
20260903143745 78 152 2.0 8.0 0.00 0.00 0.00 53 1020.1
20260903142744 79 118 2.0 8.0 0.00 0.00 0.00 51 1020.2
20260903141744 78 264 2.0 6.0 0.00 0.00 0.00 51 1020.5